Temp
-14 -14 -14 -14 -14 -14 -14 -14 -14 -13 -13 -13 -13 -13 -13 -13 -13 -13 -12 -13 -13 -13 -13 -13 -13 -13 -12 -12 -12 -12 -12 -12 -12 -12 -12 -12 -12 -11 -11 -11 -11 -12
-15 -15 -15 -15 -15 -14 -14 -14 -14 -14 -14 -14 -13 -13 -13 -13 -13 -13 -13 -13 -13 -13 -13 -13 -13 -13 -13 -13 -13 -13 -12 -12 -12 -12 -12 -12 -12 -12 -12 -11 -11 -11
-15 -15 -15 -15 -15 -15 -15 -15 -14 -14 -14 -14 -14 -14 -14 -14 -13 -13 -13 -13 -13 -13 -13 -13 -13 -13 -13 -13 -13 -13 -13 -13 -13 -12 -12 -12 -12 -12 -12 -12 -12 -12
-15 -15 -15 -15 -15 -15 -15 -15 -15 -15 -14 -14 -14 -14 -14 -14 -14 -14 -13 -13 -13 -13 -13 -13 -13 -13 -13 -13 -13 -13 -13 -13 -13 -13 -13 -13 -12 -12 -12 -12 -12 -12
-15 -15 -15 -15 -15 -15 -15 -15 -15 -15 -15 -15 -14 -14 -14 -14 -14 -14 -14 -14 -14 -14 -14 -14 -14 -14 -14 -14 -13 -13 -14 -14 -14 -14 -13 -13 -13 -13 -13 -13 -13 -13
-16 -16 -16 -16 -16 -15 -15 -15 -15 -15 -15 -15 -15 -15 -15 -15 -15 -15 -15 -15 -15 -14 -14 -14 -14 -14 -14 -14 -14 -14 -14 -14 -14 -14 -14 -14 -13 -13 -13 -13 -13 -13
-16 -16 -16 -16 -16 -16 -16 -16 -16 -15 -15 -15 -15 -15 -15 -15 -15 -15 -15 -15 -15 -15 -15 -15 -15 -15 -15 -14 -14 -14 -14 -14 -14 -14 -14 -14 -14 -14 -14 -13 -13 -13
-16 -16 -16 -16 -16 -16 -16 -16 -16 -16 -16 -16 -16 -16 -16 -16 -16 -16 -16 -16 -16 -16 -15 -15 -15 -15 -15 -15 -15 -15 -15 -14 -14 -14 -14 -14 -14 -14 -14 -14 -14 -14
-17 -17 -17 -17 -16 -16 -16 -16 -16 -16 -16 -16 -16 -16 -16 -16 -16 -16 -16 -16 -16 -16 -16 -16 -15 -15 -15 -15 -15 -15 -15 -15 -15 -15 -15 -14 -15 -15 -15 -15 -14 -14
-17 -17 -17 -17 -17 -17 -17 -16 -16 -17 -17 -17 -17 -17 -17 -17 -17 -17 -17 -16 -16 -16 -16 -16 -16 -16 -15 -15 -15 -15 -15 -15 -15 -15 -15 -15 -15 -15 -15 -15 -15 -14
-17 -17 -17 -17 -17 -17 -17 -17 -17 -17 -17 -17 -18 -18 -17 -17 -17 -17 -17 -17 -17 -17 -17 -17 -16 -16 -16 -16 -16 -16 -16 -16 -15 -15 -15 -15 -15 -15 -15 -15 -15 -15
-18 -18 -18 -18 -18 -18 -18 -18 -18 -18 -18 -18 -18 -18 -18 -18 -18 -17 -17 -17 -17 -17 -17 -17 -17 -17 -17 -16 -16 -16 -16 -16 -16 -16 -15 -15 -15 -15 -15 -15 -15 -15
-18 -18 -18 -18 -18 -18 -18 -18 -18 -18 -18 -18 -18 -18 -18 -18 -18 -18 -18 -18 -18 -17 -17 -17 -17 -17 -17 -17 -17 -17 -17 -16 -16 -16 -16 -15 -15 -15 -15 -15 -15 -15
-19 -19 -19 -19 -19 -19 -19 -19 -19 -19 -19 -19 -18 -18 -18 -18 -18 -18 -18 -18 -18 -18 -18 -18 -18 -18 -18 -18 -18 -17 -17 -17 -16 -16 -16 -16 -16 -15 -15 -15 -15 -15
-19 -19 -19 -19 -19 -19 -19 -19 -19 -19 -19 -19 -19 -19 -19 -18 -18 -18 -18 -18 -18 -18 -18 -18 -18 -18 -18 -18 -18 -18 -17 -17 -17 -17 -16 -16 -16 -16 -16 -15 -15 -15
-19 -19 -19 -19 -19 -19 -19 -19 -19 -19 -19 -19 -19 -19 -19 -19 -19 -19 -19 -19 -19 -18 -18 -18 -18 -18 -18 -18 -18 -18 -18 -18 -17 -17 -17 -16 -16 -16 -16 -16 -15 -15
-19 -19 -19 -19 -19 -19 -19 -20 -20 -20 -20 -20 -19 -19 -19 -19 -19 -19 -19 -19 -19 -19 -19 -19 -19 -18 -18 -18 -18 -18 -18 -18 -18 -17 -17 -17 -16 -16 -16 -16 -16 -15
-19 -19 -19 -19 -19 -19 -20 -20 -20 -20 -20 -20 -20 -20 -19 -19 -19 -19 -19 -19 -19 -19 -19 -19 -19 -19 -19 -18 -18 -18 -18 -18 -18 -18 -17 -17 -17 -17 -16 -16 -16 -16
-20 -19 -19 -19 -19 -20 -20 -20 -20 -20 -20 -20 -20 -20 -20 -20 -20 -19 -19 -19 -19 -19 -19 -19 -19 -19 -19 -19 -18 -18 -18 -18 -18 -18 -18 -18 -17 -17 -17 -16 -16 -16
-20 -20 -20 -20 -20 -20 -20 -20 -20 -20 -20 -20 -20 -20 -20 -20 -20 -20 -20 -20 -19 -19 -19 -19 -19 -19 -19 -19 -19 -18 -18 -18 -18 -18 -18 -18 -18 -17 -17 -17 -16 -16
-20 -20 -20 -20 -20 -20 -20 -20 -20 -20 -20 -20 -20 -20 -20 -20 -20 -20 -20 -20 -20 -19 -19 -19 -19 -19 -19 -19 -19 -19 -19 -18 -18 -18 -18 -18 -18 -18 -17 -17 -17 -17
-20 -20 -20 -20 -20 -20 -20 -20 -20 -20 -20 -20 -20 -20 -20 -20 -20 -20 -20 -20 -20 -19 -19 -19 -19 -19 -19 -19 -19 -19 -19 -19 -18 -18 -18 -18 -18 -18 -18 -17 -17 -17
-20 -20 -20 -20 -20 -20 -20 -20 -20 -20 -20 -20 -20 -20 -20 -20 -20 -20 -20 -20 -20 -20 -19 -19 -19 -19 -19 -19 -19 -19 -19 -19 -18 -18 -18 -18 -18 -18 -18 -18 -17 -17
-20 -20 -20 -20 -20 -20 -20 -20 -20 -20 -20 -20 -20 -20 -20 -20 -20 -20 -20 -20 -20 -20 -20 -20 -19 -19 -19 -19 -19 -19 -19 -19 -19 -19 -18 -18 -18 -18 -18 -18 -18 -17
-20 -20 -20 -20 -20 -20 -20 -20 -21 -21 -20 -20 -20 -20 -20 -20 -20 -20 -20 -20 -20 -20 -20 -20 -20 -19 -19 -19 -19 -19 -19 -19 -19 -18 -18 -18 -18 -18 -18 -18 -18 -18
-20 -20 -20 -20 -20 -20 -21 -21 -21 -21 -20 -21 -21 -21 -21 -21 -21 -21 -21 -20 -20 -20 -20 -20 -20 -20 -19 -19 -19 -19 -19 -19 -19 -18 -18 -18 -18 -18 -18 -18 -18 -18
Height
5729 5729 5729 5730 5730 5731 5731 5731 5732 5733 5733 5733 5734 5735 5736 5737 5738 5739 5739 5740 5741 5742 5742 5743 5743 5744 5745 5745 5746 5747 5748 5749 5750 5750 5751 5751 5752 5754 5755 5756 5756 5759
5724 5725 5725 5725 5725 5726 5726 5727 5727 5728 5728 5728 5729 5729 5730 5730 5731 5732 5732 5733 5734 5735 5736 5737 5737 5738 5739 5739 5740 5740 5741 5742 5743 5744 5745 5746 5746 5747 5748 5749 5750 5751
5720 5720 5720 5720 5721 5721 5721 5722 5722 5723 5723 5723 5724 5724 5724 5724 5725 5725 5725 5726 5727 5728 5729 5730 5731 5732 5732 5733 5733 5734 5734 5735 5736 5737 5739 5740 5740 5740 5741 5743 5744 5745
5715 5716 5715 5715 5715 5716 5716 5716 5717 5717 5717 5718 5718 5719 5719 5719 5719 5719 5719 5719 5720 5721 5722 5723 5723 5724 5726 5726 5727 5728 5728 5728 5729 5730 5732 5733 5734 5734 5735 5736 5737 5738
5710 5711 5711 5710 5710 5710 5710 5710 5711 5711 5711 5712 5712 5713 5713 5713 5713 5713 5713 5713 5713 5714 5714 5715 5716 5717 5718 5719 5720 5721 5722 5722 5723 5723 5724 5726 5727 5728 5729 5730 5730 5732
5705 5705 5705 5705 5704 5704 5704 5704 5705 5705 5705 5706 5706 5706 5707 5707 5707 5707 5707 5706 5706 5707 5708 5708 5709 5710 5711 5712 5713 5714 5715 5715 5716 5717 5717 5718 5720 5721 5722 5724 5725 5725
5700 5699 5699 5699 5699 5698 5698 5698 5698 5699 5699 5699 5700 5700 5700 5700 5700 5700 5700 5700 5700 5700 5700 5701 5702 5703 5703 5704 5706 5707 5708 5709 5709 5710 5710 5711 5713 5714 5715 5716 5718 5719
5694 5694 5693 5693 5693 5693 5692 5692 5692 5692 5692 5693 5693 5693 5693 5693 5693 5693 5693 5693 5693 5693 5693 5694 5695 5696 5696 5697 5698 5699 5700 5701 5702 5703 5703 5704 5705 5707 5707 5708 5710 5712
5688 5688 5688 5687 5687 5687 5687 5686 5686 5686 5686 5686 5686 5686 5686 5686 5686 5686 5686 5686 5686 5686 5686 5686 5687 5688 5689 5690 5691 5691 5692 5694 5695 5696 5696 5697 5698 5699 5700 5701 5702 5705
5683 5683 5683 5682 5681 5681 5680 5680 5680 5680 5680 5680 5680 5679 5679 5679 5679 5679 5679 5679 5679 5679 5679 5679 5679 5680 5681 5682 5683 5684 5685 5686 5687 5688 5689 5690 5691 5692 5693 5694 5695 5697
5678 5677 5677 5676 5675 5675 5674 5674 5674 5674 5674 5673 5673 5673 5672 5672 5672 5672 5672 5672 5672 5672 5672 5672 5672 5673 5673 5674 5675 5676 5677 5678 5679 5680 5681 5682 5684 5685 5686 5687 5688 5690
5672 5671 5671 5670 5670 5669 5668 5668 5668 5667 5667 5666 5666 5666 5665 5665 5665 5665 5666 5666 5666 5666 5665 5665 5665 5665 5665 5666 5667 5668 5669 5670 5671 5673 5674 5675 5676 5677 5679 5680 5681 5683
5667 5666 5665 5665 5664 5664 5663 5663 5662 5661 5660 5659 5659 5659 5659 5659 5659 5659 5659 5659 5659 5659 5659 5658 5658 5658 5658 5658 5659 5660 5661 5662 5663 5665 5666 5667 5668 5670 5671 5673 5674 5676
5663 5662 5661 5660 5659 5659 5658 5657 5656 5655 5654 5653 5652 5652 5652 5652 5652 5653 5653 5652 5652 5652 5652 5651 5651 5651 5651 5650 5650 5651 5652 5653 5655 5656 5658 5659 5661 5662 5663 5665 5667 5669
5658 5658 5657 5656 5655 5653 5652 5651 5650 5649 5648 5647 5646 5646 5646 5646 5646 5646 5646 5645 5645 5644 5644 5644 5644 5644 5643 5643 5642 5642 5643 5644 5646 5647 5649 5651 5653 5654 5655 5657 5659 5661
5653 5652 5652 5651 5649 5648 5647 5645 5644 5643 5642 5641 5641 5641 5640 5640 5640 5639 5639 5638 5637 5637 5637 5637 5637 5637 5636 5635 5634 5634 5635 5635 5637 5638 5640 5641 5644 5646 5647 5649 5650 5652
5647 5647 5646 5645 5644 5643 5641 5640 5638 5637 5636 5636 5635 5635 5634 5634 5633 5632 5631 5631 5630 5630 5630 5630 5629 5629 5628 5627 5626 5626 5626 5626 5627 5629 5631 5632 5634 5637 5639 5641 5642 5644
5642 5642 5641 5640 5639 5637 5636 5634 5633 5631 5631 5630 5629 5629 5628 5627 5626 5625 5624 5624 5623 5623 5622 5622 5622 5621 5620 5619 5618 5618 5618 5618 5619 5620 5621 5623 5625 5627 5629 5632 5634 5635
5637 5636 5635 5634 5633 5632 5630 5629 5627 5625 5624 5623 5623 5622 5622 5621 5619 5618 5617 5616 5615 5615 5614 5614 5613 5612 5612 5611 5610 5609 5609 5609 5610 5611 5612 5614 5615 5617 5619 5622 5624 5626
5632 5631 5630 5628 5627 5625 5624 5622 5620 5619 5618 5617 5616 5615 5615 5613 5612 5610 5609 5608 5607 5607 5606 5605 5605 5603 5603 5602 5601 5601 5600 5600 5601 5602 5603 5604 5606 5607 5609 5612 5615 5617
5627 5625 5624 5622 5621 5619 5617 5615 5614 5612 5611 5610 5609 5608 5607 5606 5603 5602 5601 5600 5599 5598 5597 5597 5596 5594 5594 5593 5593 5592 5591 5591 5591 5592 5593 5595 5596 5597 5599 5601 5604 5607
5621 5620 5618 5616 5614 5613 5611 5609 5607 5605 5604 5602 5602 5601 5600 5597 5595 5594 5593 5592 5591 5589 5588 5588 5587 5585 5584 5584 5583 5583 5582 5581 5581 5581 5583 5585 5586 5587 5588 5590 5593 5596
5615 5613 5612 5610 5608 5606 5604 5602 5601 5599 5597 5595 5595 5594 5591 5588 5587 5586 5584 5583 5582 5581 5579 5578 5578 5577 5575 5574 5574 5573 5572 5572 5571 5571 5572 5573 5575 5576 5578 5579 5582 5585
5609 5608 5606 5605 5602 5600 5598 5596 5594 5593 5591 5589 5588 5586 5583 5581 5579 5578 5576 5575 5574 5572 5570 5569 5569 5568 5567 5565 5565 5563 5562 5561 5561 5560 5561 5562 5563 5565 5566 5568 5571 5573
5604 5602 5601 5599 5596 5594 5592 5590 5588 5586 5584 5583 5581 5578 5575 5574 5572 5570 5568 5567 5565 5564 5562 5560 5560 5559 5558 5556 5556 5554 5552 5551 5550 5549 5550 5551 5551 5552 5554 5556 5558 5561
5598 5597 5595 5593 5591 5588 5586 5584 5582 5580 5578 5576 5574 5571 5568 5567 5565 5563 5561 5560 5558 5555 5553 5552 5550 5550 5549 5547 5546 5544 5542 5541 5539 5539 5540 5539 5539 5540 5541 5544 5546 5549
Wind_Speed
29 29 29 30 30 30 31 32 33 33 34 35 36 36 36 36 36 36 36 36 36 36 37 37 38 39 40 42 43 44 45 46 48 50 52 53 54 54 55 57 58 58
31 31 31 32 32 32 33 34 34 35 36 37 37 38 39 39 40 40 40 40 40 39 39 39 39 40 41 42 44 45 46 47 48 49 51 52 54 56 56 57 58 58
33 33 33 34 34 34 35 36 36 37 38 38 39 39 40 41 42 42 43 43 43 43 42 41 40 40 41 43 44 46 47 48 49 49 51 52 53 56 57 57 58 59
35 35 35 36 36 36 37 38 39 39 40 40 41 41 41 42 43 44 45 45 45 45 44 44 43 42 41 42 44 46 47 49 49 50 51 52 53 55 56 57 58 59
37 37 38 38 39 40 40 40 41 41 42 42 43 43 43 44 45 45 46 46 47 47 46 45 44 44 43 43 43 45 47 48 49 50 51 52 54 55 56 57 58 58
39 39 39 40 41 42 42 42 43 43 44 44 44 45 45 46 46 47 47 47 47 47 46 45 45 45 45 44 44 44 46 47 48 49 51 52 53 55 56 57 58 59
41 40 41 41 42 43 44 44 45 45 46 46 46 47 47 47 47 47 47 47 48 48 47 46 45 46 46 46 45 45 46 46 47 49 50 51 52 54 56 57 57 58
41 41 42 42 43 44 45 46 47 48 48 48 48 49 49 48 48 48 48 47 48 48 48 48 47 46 46 47 47 47 47 47 47 48 49 50 50 52 54 57 58 58
42 42 43 43 44 45 46 48 49 50 50 49 49 49 49 49 49 48 48 48 48 48 49 49 49 48 47 47 48 48 48 48 48 48 49 50 50 50 51 54 57 58
42 42 43 44 45 46 47 48 49 50 49 49 48 48 48 48 48 48 48 48 48 48 49 50 50 50 50 49 49 49 49 49 49 49 49 50 50 51 51 52 54 57
41 42 43 44 45 46 47 48 48 48 48 48 47 47 47 47 47 47 48 48 48 48 49 50 50 51 51 51 50 50 51 50 50 51 50 50 50 51 52 52 53 54
40 41 42 43 43 44 45 46 46 47 47 47 48 48 48 47 47 47 47 48 48 48 49 50 50 51 52 52 52 52 52 52 52 52 52 52 52 51 51 52 53 53
38 39 40 40 41 41 42 43 44 45 46 47 48 48 48 48 48 47 47 48 48 48 49 50 50 51 52 53 53 53 53 54 54 53 53 53 53 53 53 52 52 53
36 36 36 37 38 39 40 41 42 44 45 47 48 48 48 48 48 48 48 48 48 49 49 50 51 51 52 53 54 55 55 55 55 55 55 55 54 55 55 54 53 53
34 34 35 36 37 39 40 41 42 44 46 47 48 48 48 48 48 47 48 48 49 49 49 50 51 51 52 53 54 55 56 56 56 56 56 56 56 56 56 56 55 54
35 34 34 35 37 38 39 40 42 43 44 46 46 47 47 47 47 47 48 48 49 49 49 50 50 51 52 53 54 55 56 57 57 57 57 58 57 57 57 57 57 57
35 34 34 35 36 38 39 40 42 43 44 45 45 45 46 46 47 47 48 49 49 49 50 50 50 51 51 53 54 54 55 57 58 58 58 58 58 58 58 58 58 58
35 35 35 36 37 39 40 41 43 44 45 45 45 45 46 46 47 48 49 49 50 51 51 51 51 51 52 53 54 55 55 57 58 58 59 59 59 59 59 59 59 59
36 36 36 38 39 41 42 43 44 46 46 46 46 46 46 46 47 49 50 50 51 52 52 52 52 52 53 54 54 55 56 57 57 58 59 59 59 60 60 60 60 60
36 37 38 40 41 43 44 45 46 47 47 47 47 47 47 48 49 50 51 51 52 52 53 53 54 54 54 55 55 56 57 57 57 57 58 58 59 60 60 60 60 61
38 39 40 42 43 44 46 46 47 48 49 49 49 48 49 50 51 52 52 52 53 53 53 54 54 55 56 56 56 56 57 58 58 58 58 58 59 60 60 60 60 61
40 41 43 44 45 46 47 48 48 49 49 49 48 49 50 51 53 53 53 53 53 54 54 54 54 55 56 56 57 57 58 59 59 59 59 59 59 60 61 61 61 61
42 43 44 45 46 47 48 48 48 49 50 49 49 49 50 52 53 53 53 54 53 54 54 54 54 54 54 55 56 57 58 59 60 61 61 61 61 61 62 62 62 62
43 45 46 46 47 47 48 49 49 49 50 50 50 50 51 52 52 53 53 52 52 52 52 53 53 53 53 54 55 57 58 59 60 62 62 63 63 63 63 64 64 64
44 45 46 47 47 48 48 49 50 50 50 50 50 51 51 52 52 51 51 50 50 51 52 53 53 53 54 55 55 57 58 59 61 62 62 63 64 64 65 65 65 65
45 46 47 47 47 48 49 50 50 51 51 50 50 50 51 50 49 49 49 50 51 52 53 54 55 54 55 55 55 55 56 57 59 60 60 61 62 62 63 63 64 65
Wind_Direction
266 267 268 269 269 269 270 269 269 269 269 269 269 269 269 270 271 272 272 272 272 271 269 268 265 264 262 261 260 258 256 255 254 253 253 252 251 250 249 248 248 246
269 270 271 272 272 272 272 272 272 272 273 273 274 275 275 276 276 277 277 276 276 274 272 270 267 264 262 261 260 260 258 256 254 253 253 252 252 251 250 249 249 248
272 272 272 273 273 273 273 273 273 273 273 274 275 276 277 278 279 279 280 279 279 277 276 273 269 265 262 261 260 259 259 258 256 254 253 252 252 252 251 250 249 249
273 273 274 274 274 274 274 274 274 274 274 274 275 276 278 278 279 280 280 280 280 279 277 274 271 267 263 260 259 258 258 258 258 256 254 252 252 251 251 251 250 249
275 275 275 276 276 276 276 276 276 275 276 276 276 278 278 279 280 280 280 280 279 278 277 274 272 269 265 261 259 257 257 258 258 257 256 254 252 251 251 251 251 250
275 276 275 275 276 276 276 276 276 276 277 277 278 278 279 279 280 279 279 279 278 277 275 273 270 268 266 263 260 258 257 257 257 257 256 255 254 253 251 251 251 251
274 275 275 275 276 276 276 276 277 277 277 277 278 278 278 278 278 278 278 278 277 276 274 272 269 267 265 263 261 259 257 257 258 258 257 255 254 253 253 252 251 251
274 274 275 275 275 276 276 277 277 277 277 277 277 277 277 277 277 277 276 276 275 275 273 271 269 266 264 262 261 259 257 257 257 257 258 257 255 253 253 253 252 251
274 274 274 274 275 275 275 275 276 276 276 276 276 276 276 276 276 276 275 274 273 273 272 271 269 266 264 262 260 259 258 257 256 256 257 257 257 255 252 252 252 251
274 274 274 274 273 274 274 274 274 274 274 275 275 275 275 274 274 274 273 273 272 271 271 270 269 268 265 263 261 259 258 257 256 255 255 255 256 256 255 253 252 251
275 274 274 274 273 273 273 273 273 273 273 274 274 273 273 273 273 272 272 272 271 271 270 269 269 268 266 264 262 260 259 258 257 255 255 254 254 255 255 254 253 252
275 274 274 274 273 274 274 274 274 274 274 273 273 272 272 272 272 272 272 271 271 270 270 269 268 267 267 265 263 261 260 259 258 256 255 255 254 254 254 254 254 253
274 275 276 276 276 276 276 276 276 275 274 273 273 272 272 272 272 272 272 271 271 270 269 268 268 267 266 266 264 263 261 259 258 257 256 255 255 254 254 253 253 254
274 275 277 279 280 280 279 278 277 275 274 273 273 273 273 273 272 272 272 271 270 269 268 267 267 267 266 266 265 264 262 260 258 257 256 255 254 254 254 253 253 253
274 276 277 280 282 282 281 279 278 276 275 274 274 274 274 273 273 273 272 271 270 269 268 267 267 266 266 265 264 264 263 261 259 257 256 255 254 253 254 254 253 252
277 278 280 283 285 285 284 282 280 278 277 276 275 275 275 275 274 274 273 272 271 270 269 268 268 267 266 265 265 264 263 262 261 259 257 255 254 253 253 253 253 252
278 280 284 288 288 288 287 284 282 280 278 277 277 276 276 276 275 275 274 273 273 272 271 270 269 268 268 267 266 265 264 263 262 261 259 257 255 253 252 252 252 252
278 281 285 288 289 289 288 286 283 281 280 279 278 278 278 278 278 277 276 275 274 274 273 271 270 269 269 268 267 266 264 263 263 262 261 259 257 255 253 251 251 251
277 280 284 287 288 289 287 286 284 283 281 280 279 279 279 279 279 278 277 276 275 274 273 272 271 270 269 268 267 266 265 264 263 263 262 261 259 257 255 253 251 250
276 280 283 286 289 289 288 287 285 284 284 283 282 281 281 280 280 279 277 277 276 275 274 273 272 271 270 269 268 268 267 265 264 263 262 262 261 259 257 255 253 251
276 280 283 286 289 290 290 289 287 286 285 285 284 284 283 282 281 280 278 278 277 276 275 274 273 272 271 270 269 269 268 267 266 264 263 262 261 260 259 257 255 252
277 280 283 286 288 290 290 290 289 288 287 287 286 286 285 284 282 281 280 279 278 277 276 275 274 273 272 271 270 269 268 267 266 265 263 262 261 261 260 258 256 254
277 279 282 285 287 290 292 291 290 290 289 289 289 288 287 285 284 284 283 281 280 279 277 276 275 274 273 271 270 269 268 267 266 265 263 262 261 260 260 259 257 256
276 279 282 285 287 291 292 291 291 291 291 292 291 289 287 286 286 285 284 283 282 280 278 277 275 274 273 272 271 270 269 267 266 264 263 263 261 260 259 258 257 256
276 279 282 284 288 291 292 291 291 292 293 293 291 289 288 288 287 286 285 283 282 281 279 278 277 276 275 274 273 273 272 270 268 266 265 264 263 261 260 258 257 255
277 279 282 285 289 291 291 291 293 293 293 292 290 289 288 288 287 285 285 284 283 282 282 281 281 280 279 277 276 275 274 272 271 269 267 265 264 262 260 258 256 255